Find Starlink 31899

NORAD ID: 59850 Int'l Des: 2024-097 Owner: SPXS Country: US Constellation: starlink operational
LEOCIRCULAR

現在のビュー

3D地球を読み込み中...

About Starlink 31899

Starlink 31899 (NORAD 59850) is a starlink constellation satellite (v2 mini) launched May 23, 2024 by SPXS of US. It operates in LEO, CIRCULAR orbit with a mass of 730.00 kg.

次回通過

Passes for default location (London). Set your location on the main map for personalized predictions.

高度履歴

Loading altitude history...

軌道要素

1 59850U 24097R 26263.31928205 .00000628 00000-0 32329-4 0 9997
2 59850 43.0028 255.1303 0001410 273.4623 86.6067 15.27580457131684
Epoch: Sep 20, 2026 • Age: 14 hours

現在のステータス

高度 495.2 km
遠地点 / 近地点 N/A
速度 7.62 km/s
衛星直下点 -42.62°S, 148.26°W
打ち上げ日 May 23, 2024
運用期間 2.3 years
タイプ internet

技術仕様

分類 Payload
質量 730.00 kg
乾燥質量 700.00 kg
長さ 0.30 m
スパン 29.00 m
形状 ? Box + pan
製造者 SPXS
バスタイプ Starlink V2M
フェーズステータス In Orbit
所有者/国 SPXS/US

Most Searched